Location: Observatorio Las Palmas
(29.0667°N, 110.9333°W)
Time: 05:04:51
(UTC-07:00)

Skynet4D Del rocket - Visible Passes

Search period start: 31 October 2014 00:00
Search period end: 10 November 2014 00:00
Orbit: 763 x 1291 km, 26.9° (Epoch: 31 October)

Date Brightness Start Highest point End Pass type
(mag) Time Alt. Az. Time Alt. Az. Time Alt. Az.
31 Oct 4.7 19:38:53 10° W 19:43:40 32° SSW 19:44:22 31° S visible
01 Nov 4.4 18:27:29 10° W 18:32:50 46° SSW 18:37:55 10° ESE visible
01 Nov 5.8 20:21:20 10° WSW 20:23:36 16° SW 20:23:36 16° SW visible
02 Nov 5.1 19:09:24 10° W 19:14:02 28° SSW 19:17:15 16° SSE visible
03 Nov 4.7 17:57:46 10° W 18:03:14 41° SSW 18:08:16 10° SE visible
03 Nov 5.8 19:52:22 10° WSW 19:55:08 14° SSW 19:56:39 13° S visible
04 Nov 5.5 18:39:53 10° WSW 18:44:22 24° SSW 18:48:37 10° SSE visible
05 Nov 6.2 19:23:45 10° SW 19:25:24 11° SSW 19:27:02 10° SSW visible
06 Nov 5.9 18:10:21 10° WSW 18:14:39 21° SSW 18:18:40 10° SSE visible
